Regional Weather Roundup
Issued by NWS

Home | Current Version | Previous Version | Graphics & Text | Print | Product List | Glossary On
Versions: 1 2 3 4 5 6 7 8 9 10 11 12 13 14 15 16 17 18 19 20 21 22 23 24 25 26 27 28 29 30 31 32 33 34 35 36 37 38 39 40 41 42 43 44 45 46 47 48 49 50
000
ASUS44 KMEG 271310
RWRTN
TENNESSEE HOURLY STATE WEATHER ROUNDUP
NATIONAL WEATHER SERVICE MEMPHIS TN
800 AM CDT MON JUL 27 2015

TNZ002-004-019-021-049-052-054-088>092-271400-
WEST TENNESSEE

CITY           SKY/WX    TMP DP  RH WIND       PRES   REMARKS
MEMPHIS INTL   MOSUNNY   83  75  77 S3        29.97R HX  90
NWS MEMPHIS      N/A     79 N/A N/A MISG        N/A
JACKSON        SUNNY     81  75  82 CALM      29.98S
DYERSBURG        N/A    N/A N/A N/A MISG        N/A
PARIS          SUNNY     77  73  88 CALM      30.00R
LEXINGTON      SUNNY     79  75  89 CALM      29.98S
$$

TNZ008-025-027-028-033-062-065-066-271400-
NORTH MIDDLE TENNESSEE

CITY           SKY/WX    TMP DP  RH WIND       PRES   REMARKS
NASHVILLE      MOSUNNY   79  75  87 CALM      30.00S
CLARKSVILLE    PTSUNNY   76  74  93 CALM      29.99R
SMYRNA         SUNNY     79  76  90 CALM      30.01S
COOKEVILLE     SUNNY     79  73  83 CALM      30.03R
CROSSVILLE     SUNNY     77  69  76 W3        30.08S
$$

TNZ061-075-076-078-094-096-097-271400-
SOUTH MIDDLE TENNESSEE

CITY           SKY/WX    TMP DP  RH WIND       PRES   REMARKS
FAYETTEVILLE   SUNNY     77  72  83 CALM      30.03R
TULLAHOMA      SUNNY     77  72  83 CALM      30.05R
WINCHESTER     SUNNY     75  73  94 CALM      30.04R
MCMINNVILLE    SUNNY     79  79 100 CALM      30.03S
COLUMBIA       SUNNY     79  79 100 CALM      30.00R
SHELBYVILLE    SUNNY     81  75  83 CALM        N/A
$$

TNZ017-018-042-046-047-271400-
NORTHEAST TENNESSEE

CITY           SKY/WX    TMP DP  RH WIND       PRES   REMARKS
TRI CITIES     CLOUDY    73  69  87 CALM      30.06R
ELIZABETHTON   SUNNY     70  66  88 CALM      30.07S
$$

TNZ012-013-036-069-073-074-271400-
CENTRAL EAST TENNESSEE

CITY           SKY/WX    TMP DP  RH WIND       PRES   REMARKS
KNOXVILLE      MOSUNNY   78  69  73 S3        30.04R
OAK RIDGE      MOSUNNY   78  71  79 CALM      30.04S
GATLINBURG     SUNNY     77  66  69 SW3       30.04R
MORRISTOWN     SUNNY     77  72  83 CALM      30.06S
$$

TNZ083-085-099-271400-
SOUTHEAST TENNESSEE

CITY           SKY/WX    TMP DP  RH WIND       PRES   REMARKS
CHATTANOOGA    MOSUNNY   80  73  79 CALM      30.03R
$$

SKY/WX REPORTED AS FAIR MEANS FEW OR NO CLOUDS BELOW
12 THOUSAND FEET.



USA.gov is the U.S. government's official web portal to all federal, state and local government web resources and services.